| time (UTC) | temp C | wind direction | speed KPH | gust KPH | rain 1hr cm | rain 24hr cm | rain mn cm | humidity % | barometer mb |
| 20260903195104 | 29 | 262 | 6.4 | 11.3 | 0.00 | 0.94 | 0.94 | 72 | 1013.3 |
| 20260903194604 | 29 | 307 | 4.8 | 9.7 | 0.00 | 0.94 | 0.94 | 74 | 1013.3 |
| 20260903194104 | 29 | 292 | 3.2 | 14.5 | 0.00 | 0.94 | 0.94 | 74 | 1013.4 |
| 20260903192604 | 29 | 62 | 3.2 | 11.3 | 0.00 | 0.94 | 0.94 | 74 | 1013.4 |
| 20260903192105 | 28 | 303 | 3.2 | 8.0 | 0.00 | 0.94 | 0.94 | 75 | 1013.2 |
| 20260903191604 | 28 | 21 | 3.2 | 11.3 | 0.00 | 0.94 | 0.94 | 75 | 1013.3 |
| 20260903191104 | 28 | 319 | 1.6 | 9.7 | 0.00 | 0.94 | 0.94 | 74 | 1013.3 |
| 20260903190604 | 28 | 301 | 4.8 | 9.7 | 0.00 | 0.94 | 0.94 | 76 | 1013.3 |
| 20260903190103 | 28 | 266 | 3.2 | 4.8 | 0.00 | 0.94 | 0.94 | 76 | 1013.2 |
| 20260903185104 | 28 | 330 | 3.2 | 9.7 | 0.00 | 0.97 | 0.94 | 77 | 1013.4 |
| 20260903184605 | 28 | 279 | 3.2 | 11.3 | 0.00 | 0.97 | 0.94 | 78 | 1013.5 |
| 20260903184104 | 28 | 295 | 1.6 | 4.8 | 0.00 | 0.97 | 0.94 | 78 | 1013.5 |
| 20260903183604 | 27 | 260 | 1.6 | 4.8 | 0.00 | 0.99 | 0.94 | 79 | 1013.7 |
| 20260903182605 | 27 | 264 | 4.8 | 8.0 | 0.00 | 1.02 | 0.94 | 78 | 1013.7 |
| 20260903182104 | 27 | 275 | 0.0 | 8.0 | 0.00 | 1.07 | 0.94 | 78 | 1013.9 |
| 20260903181104 | 27 | 263 | 4.8 | 11.3 | 0.00 | 1.19 | 0.94 | 75 | 1013.9 |
| 20260903180605 | 28 | 307 | 1.6 | 19.3 | 0.00 | 1.22 | 0.94 | 75 | 1013.9 |
| 20260903180105 | 28 | 265 | 8.0 | 19.3 | 0.00 | 1.30 | 0.94 | 75 | 1014.0 |
| 20260903175105 | 28 | 315 | 3.2 | 12.9 | 0.00 | 1.45 | 0.94 | 75 | 1014.0 |
| 20260903174103 | 28 | 308 | 8.0 | 14.5 | 0.00 | 1.83 | 0.94 | 77 | 1014.0 |
| 20260903173604 | 28 | 275 | 4.8 | 12.9 | 0.00 | 2.08 | 0.94 | 76 | 1014.0 |
| 20260903173104 | 28 | 279 | 4.8 | 11.3 | 0.00 | 2.16 | 0.94 | 77 | 1014.1 |
| 20260903172604 | 27 | 276 | 1.6 | 11.3 | 0.00 | 2.16 | 0.94 | 79 | 1014.1 |
| 20260903172104 | 27 | 269 | 8.0 | 14.5 | 0.00 | 2.16 | 0.94 | 79 | 1014.3 |
| 20260903171605 | 27 | 258 | 4.8 | 16.1 | 0.00 | 2.16 | 0.94 | 79 | 1014.3 |
| 20260903171105 | 27 | 303 | 3.2 | 14.5 | 0.00 | 2.16 | 0.94 | 82 | 1014.3 |
| 20260903170105 | 26 | 253 | 3.2 | 8.0 | 0.00 | 2.16 | 0.94 | 83 | 1014.3 |
| 20260903165604 | 26 | 254 | 1.6 | 9.7 | 0.00 | 2.16 | 0.94 | 84 | 1014.5 |
| 20260903164604 | 25 | 291 | 8.0 | 16.1 | 0.00 | 2.16 | 0.94 | 83 | 1014.7 |
| 20260903164104 | 25 | 291 | 4.8 | 14.5 | 0.00 | 2.16 | 0.94 | 84 | 1014.7 |
| 20260903163604 | 25 | 269 | 6.4 | 12.9 | 0.00 | 2.16 | 0.94 | 83 | 1014.8 |
| 20260903162604 | 25 | 291 | 3.2 | 8.0 | 0.00 | 2.16 | 0.94 | 84 | 1014.9 |
| 20260903161605 | 25 | 295 | 4.8 | 16.1 | 0.00 | 2.16 | 0.94 | 84 | 1015.1 |
| 20260903161104 | 25 | 233 | 4.8 | 11.3 | 0.00 | 2.16 | 0.94 | 85 | 1015.1 |
| 20260903160606 | 25 | 287 | 3.2 | 12.9 | 0.00 | 2.16 | 0.94 | 86 | 1015.2 |
| 20260903155604 | 25 | 255 | 1.6 | 8.0 | 0.00 | 2.16 | 0.94 | 85 | 1015.2 |
| 20260903155105 | 25 | 312 | 1.6 | 9.7 | 0.00 | 2.16 | 0.94 | 86 | 1015.3 |
| 20260903154604 | 25 | 269 | 4.8 | 16.1 | 0.00 | 2.16 | 0.94 | 86 | 1015.4 |
| 20260903154104 | 25 | 280 | 3.2 | 11.3 | 0.00 | 2.16 | 0.94 | 85 | 1015.5 |
| 20260903153604 | 25 | 272 | 9.7 | 12.9 | 0.00 | 2.16 | 0.94 | 87 | 1015.7 |
| 20260903152604 | 24 | 214 | 3.2 | 11.3 | 0.00 | 2.16 | 0.94 | 89 | 1015.6 |
| 20260903152104 | 23 | 263 | 3.2 | 4.8 | 0.00 | 2.16 | 0.94 | 89 | 1015.6 |
| 20260903151605 | 23 | 260 | 6.4 | 12.9 | 0.00 | 2.16 | 0.94 | 89 | 1015.6 |
| 20260903151104 | 23 | 266 | 1.6 | 8.0 | 0.00 | 2.16 | 0.94 | 90 | 1015.7 |
| 20260903150105 | 23 | 213 | 4.8 | 8.0 | 0.00 | 2.16 | 0.94 | 90 | 1015.9 |
| 20260903145604 | 23 | 291 | 1.6 | 8.0 | 0.00 | 2.16 | 0.94 | 91 | 1015.9 |
| 20260903144604 | 22 | 265 | 4.8 | 12.9 | 0.00 | 2.16 | 0.94 | 92 | 1015.9 |
| 20260903144105 | 22 | 256 | 4.8 | 9.7 | 0.00 | 2.16 | 0.94 | 93 | 1015.8 |
| 20260903143604 | 22 | 270 | 8.0 | 12.9 | 0.00 | 2.16 | 0.94 | 92 | 1015.8 |
| 20260903143104 | 22 | 269 | 4.8 | 12.9 | 0.00 | 2.16 | 0.94 | 93 | 1015.8 |
| 20260903142605 | 22 | 278 | 4.8 | 16.1 | 0.00 | 2.16 | 0.94 | 94 | 1015.8 |
| 20260903142104 | 22 | 256 | 9.7 | 19.3 | 0.00 | 2.16 | 0.94 | 94 | 1015.8 |
| 20260903141604 | 22 | 250 | 4.8 | 22.5 | 0.00 | 2.16 | 0.94 | 95 | 1015.8 |
| 20260903141105 | 22 | 278 | 3.2 | 16.1 | 0.00 | 2.16 | 0.94 | 96 | 1015.8 |
| 20260903140605 | 22 | 257 | 3.2 | 14.5 | 0.00 | 2.16 | 0.94 | 96 | 1015.6 |
| 20260903140104 | 21 | 295 | 8.0 | 16.1 | 0.00 | 2.16 | 0.94 | 96 | 1015.6 |
| 20260903135605 | 21 | 271 | 8.0 | 12.9 | 0.00 | 2.16 | 0.94 | 96 | 1015.6 |
| 20260903135104 | 21 | 263 | 3.2 | 14.5 | 0.00 | 2.16 | 0.94 | 97 | 1015.7 |
| 20260903134606 | 21 | 299 | 9.7 | 19.3 | 0.00 | 2.16 | 0.94 | 97 | 1015.8 |
| 20260903133604 | 21 | 280 | 3.2 | 9.7 | 0.00 | 2.16 | 0.94 | 97 | 1015.8 |
| 20260903132604 | 21 | 257 | 3.2 | 11.3 | 0.00 | 2.16 | 0.94 | 97 | 1015.8 |
| 20260903132104 | 21 | 259 | 3.2 | 8.0 | 0.00 | 2.16 | 0.94 | 97 | 1015.9 |
| 20260903131604 | 21 | 268 | 3.2 | 9.7 | 0.00 | 2.16 | 0.94 | 97 | 1015.9 |
| 20260903131104 | 20 | 261 | 1.6 | 12.9 | 0.00 | 2.16 | 0.94 | 97 | 1015.7 |
| 20260903130605 | 21 | 280 | 4.8 | 9.7 | 0.00 | 2.16 | 0.94 | 97 | 1015.8 |
| 20260903130104 | 21 | 256 | 3.2 | 8.0 | 0.00 | 2.16 | 0.94 | 97 | 1015.7 |
| 20260903125605 | 21 | 252 | 0.0 | 8.0 | 0.00 | 2.16 | 0.94 | 97 | 1015.6 |
| 20260903125105 | 21 | 252 | 0.0 | 1.6 | 0.00 | 2.16 | 0.94 | 97 | 1015.7 |
| 20260903124604 | 21 | 252 | 0.0 | 3.2 | 0.00 | 2.16 | 0.94 | 97 | 1015.8 |
| 20260903123605 | 20 | 252 | 0.0 | 1.6 | 0.00 | 2.16 | 0.94 | 97 | 1016.2 |
| 20260903123103 | 20 | 252 | 0.0 | 0.0 | 0.00 | 2.16 | 0.94 | 97 | 1016.1 |
| 20260903122104 | 20 | 252 | 0.0 | 0.0 | 0.00 | 2.16 | 0.94 | 97 | 1016.1 |
| 20260903121604 | 20 | 252 | 0.0 | 0.0 | 0.00 | 2.16 | 0.94 | 97 | 1016.2 |
| 20260903121104 | 20 | 252 | 0.0 | 3.2 | 0.00 | 2.16 | 0.94 | 97 | 1016.1 |
| 20260903120604 | 20 | 252 | 1.6 | 4.8 | 0.00 | 2.16 | 0.94 | 97 | 1016.1 |
| 20260903115604 | 20 | 252 | 0.0 | 3.2 | 0.00 | 2.16 | 0.94 | 97 | 1016.1 |
| 20260903115105 | 19 | 252 | 0.0 | 0.0 | 0.00 | 2.16 | 0.94 | 97 | 1016.1 |
| 20260903114604 | 19 | 252 | 0.0 | 0.0 | 0.00 | 2.16 | 0.94 | 97 | 1016.1 |
| 20260903114103 | 19 | 252 | 0.0 | 0.0 | 0.00 | 2.16 | 0.94 | 97 | 1016.3 |
| 20260903113104 | 19 | 252 | 0.0 | 0.0 | 0.00 | 2.16 | 0.94 | 97 | 1016.3 |
| 20260903112104 | 19 | 252 | 0.0 | 0.0 | 0.00 | 2.16 | 0.94 | 97 | 1016.6 |
| 20260903111604 | 18 | 252 | 0.0 | 0.0 | 0.00 | 2.16 | 0.94 | 97 | 1016.5 |
| 20260903111104 | 18 | 252 | 0.0 | 0.0 | 0.00 | 2.16 | 0.94 | 97 | 1016.2 |
| 20260903110604 | 18 | 252 | 0.0 | 0.0 | 0.00 | 2.16 | 0.94 | 97 | 1016.3 |
| 20260903110104 | 18 | 252 | 0.0 | 0.0 | 0.00 | 2.16 | 0.94 | 97 | 1016.3 |
| 20260903105604 | 18 | 252 | 0.0 | 0.0 | 0.00 | 2.16 | 0.94 | 97 | 1016.2 |
| 20260903105104 | 18 | 252 | 0.0 | 0.0 | 0.00 | 2.16 | 0.94 | 97 | 1016.3 |
| 20260903104604 | 18 | 252 | 0.0 | 0.0 | 0.00 | 2.16 | 0.94 | 97 | 1016.3 |
| 20260903104104 | 18 | 252 | 0.0 | 0.0 | 0.00 | 2.16 | 0.94 | 97 | 1016.4 |
| 20260903103604 | 18 | 252 | 0.0 | 0.0 | 0.00 | 2.16 | 0.94 | 97 | 1016.4 |
| 20260903103105 | 18 | 252 | 0.0 | 0.0 | 0.00 | 2.16 | 0.94 | 97 | 1016.3 |
| 20260903102605 | 18 | 252 | 0.0 | 0.0 | 0.03 | 2.16 | 0.94 | 97 | 1016.3 |
| 20260903101604 | 18 | 252 | 0.0 | 0.0 | 0.03 | 2.16 | 0.94 | 97 | 1016.5 |
| 20260903101104 | 18 | 252 | 0.0 | 0.0 | 0.03 | 2.16 | 0.94 | 97 | 1016.5 |
| 20260903100604 | 18 | 252 | 0.0 | 0.0 | 0.03 | 2.16 | 0.94 | 97 | 1016.4 |
| 20260903100103 | 18 | 252 | 0.0 | 0.0 | 0.03 | 2.16 | 0.94 | 97 | 1016.5 |
| 20260903095605 | 18 | 252 | 0.0 | 0.0 | 0.03 | 2.16 | 0.94 | 97 | 1016.4 |
| 20260903095104 | 18 | 252 | 0.0 | 0.0 | 0.03 | 2.16 | 0.94 | 97 | 1016.2 |
| 20260903094604 | 18 | 252 | 0.0 | 0.0 | 0.03 | 2.16 | 0.94 | 97 | 1016.3 |
| 20260903094104 | 18 | 252 | 0.0 | 0.0 | 0.03 | 2.16 | 0.94 | 97 | 1016.1 |
| 20260903093603 | 18 | 252 | 0.0 | 0.0 | 0.03 | 2.16 | 0.94 | 96 | 1016.1 |
| 20260903092605 | 18 | 252 | 0.0 | 0.0 | 0.00 | 2.13 | 0.91 | 97 | 1016.1 |
| 20260903092104 | 18 | 252 | 0.0 | 0.0 | 0.00 | 2.13 | 0.91 | 97 | 1016.2 |
| 20260903091604 | 18 | 252 | 0.0 | 0.0 | 0.00 | 2.13 | 0.91 | 96 | 1015.9 |
| 20260903091104 | 18 | 252 | 0.0 | 1.6 | 0.00 | 2.13 | 0.91 | 97 | 1015.8 |
| 20260903090604 | 18 | 252 | 1.6 | 3.2 | 0.00 | 2.13 | 0.91 | 97 | 1016.2 |
| 20260903090104 | 18 | 252 | 0.0 | 0.0 | 0.00 | 2.13 | 0.91 | 97 | 1016.3 |
| 20260903085604 | 18 | 252 | 0.0 | 0.0 | 0.00 | 2.13 | 0.91 | 97 | 1016.3 |
| 20260903085103 | 18 | 252 | 0.0 | 0.0 | 0.00 | 2.13 | 0.91 | 97 | 1016.1 |
| 20260903084604 | 19 | 252 | 3.2 | 4.8 | 0.00 | 2.13 | 0.91 | 97 | 1016.3 |
| 20260903083104 | 18 | 252 | 0.0 | 0.0 | 0.03 | 2.13 | 0.91 | 96 | 1016.3 |
| 20260903082603 | 18 | 252 | 0.0 | 0.0 | 0.03 | 2.13 | 0.91 | 96 | 1016.1 |
| 20260903082104 | 18 | 252 | 0.0 | 0.0 | 0.03 | 2.13 | 0.91 | 96 | 1016.1 |
| 20260903081104 | 18 | 252 | 1.6 | 4.8 | 0.03 | 2.13 | 0.91 | 96 | 1016.2 |
| 20260903080603 | 19 | 252 | 0.0 | 3.2 | 0.03 | 2.13 | 0.91 | 96 | 1016.2 |
| 20260903080104 | 19 | 252 | 0.0 | 1.6 | 0.03 | 2.13 | 0.91 | 96 | 1016.1 |
| 20260903075604 | 19 | 252 | 1.6 | 4.8 | 0.03 | 2.13 | 0.91 | 96 | 1016.0 |
| 20260903075103 | 19 | 252 | 0.0 | 0.0 | 0.03 | 2.13 | 0.91 | 96 | 1016.2 |
| 20260903074604 | 19 | 252 | 0.0 | 0.0 | 0.03 | 2.13 | 0.91 | 96 | 1016.4 |
| 20260903074104 | 19 | 252 | 0.0 | 0.0 | 0.03 | 2.13 | 0.91 | 96 | 1016.5 |
| 20260903073605 | 19 | 252 | 0.0 | 0.0 | 0.03 | 2.13 | 0.91 | 96 | 1016.6 |
| 20260903073103 | 19 | 252 | 0.0 | 0.0 | 0.00 | 2.11 | 0.89 | 96 | 1016.6 |
| 20260903072604 | 19 | 252 | 0.0 | 0.0 | 0.00 | 2.11 | 0.89 | 96 | 1016.7 |
| 20260903072104 | 19 | 252 | 0.0 | 1.6 | 0.00 | 2.11 | 0.89 | 96 | 1016.7 |
| 20260903071604 | 19 | 252 | 0.0 | 3.2 | 0.00 | 2.11 | 0.89 | 96 | 1016.7 |
| 20260903070604 | 19 | 252 | 0.0 | 3.2 | 0.03 | 2.11 | 0.89 | 96 | 1017.1 |
| 20260903065605 | 19 | 252 | 0.0 | 0.0 | 0.03 | 2.11 | 0.89 | 96 | 1016.9 |
| 20260903065104 | 19 | 252 | 0.0 | 0.0 | 0.03 | 2.11 | 0.89 | 96 | 1016.8 |
| 20260903064605 | 19 | 252 | 1.6 | 4.8 | 0.03 | 2.11 | 0.89 | 96 | 1016.7 |
| 20260903064104 | 19 | 252 | 0.0 | 1.6 | 0.03 | 2.11 | 0.89 | 96 | 1016.5 |
| 20260903063604 | 19 | 247 | 3.2 | 8.0 | 0.03 | 2.11 | 0.89 | 96 | 1016.5 |
| 20260903063103 | 18 | 220 | 3.2 | 11.3 | 0.05 | 2.11 | 0.89 | 96 | 1016.5 |
| 20260903062604 | 19 | 252 | 3.2 | 8.0 | 0.05 | 2.11 | 0.89 | 96 | 1016.7 |
| 20260903062104 | 18 | 264 | 3.2 | 8.0 | 0.08 | 2.11 | 0.89 | 96 | 1016.8 |
| 20260903061604 | 18 | 252 | 3.2 | 9.7 | 0.08 | 2.11 | 0.89 | 96 | 1016.8 |
| 20260903061104 | 18 | 265 | 0.0 | 1.6 | 0.10 | 2.11 | 0.89 | 96 | 1016.8 |
| 20260903060604 | 18 | 265 | 1.6 | 4.8 | 0.10 | 2.08 | 0.86 | 96 | 1016.9 |
| 20260903055104 | 18 | 259 | 0.0 | 0.0 | 0.25 | 2.08 | 0.86 | 96 | 1017.1 |
| 20260903054603 | 18 | 259 | 0.0 | 0.0 | 0.33 | 2.08 | 0.86 | 96 | 1017.4 |
| 20260903054104 | 18 | 259 | 0.0 | 0.0 | 0.38 | 2.08 | 0.86 | 96 | 1017.7 |
| 20260903053104 | 18 | 259 | 0.0 | 0.0 | 0.48 | 2.06 | 0.84 | 95 | 1018.2 |
| 20260903052605 | 18 | 259 | 0.0 | 4.8 | 0.56 | 2.06 | 0.84 | 95 | 1018.2 |
| 20260903052104 | 18 | 257 | 3.2 | 8.0 | 0.61 | 2.03 | 0.81 | 95 | 1018.2 |
| 20260903051603 | 18 | 272 | 1.6 | 4.8 | 0.81 | 2.03 | 0.81 | 95 | 1018.1 |
| 20260903050603 | 18 | 180 | 3.2 | 12.9 | 0.76 | 1.98 | 0.76 | 95 | 1017.9 |
| 20260903050104 | 18 | 174 | 3.2 | 8.0 | 0.71 | 1.93 | 0.71 | 95 | 1018.0 |
| 20260903045604 | 18 | 184 | 1.6 | 4.8 | 0.66 | 1.88 | 0.66 | 95 | 1018.4 |
| 20260903045103 | 18 | 188 | 3.2 | 4.8 | 0.61 | 1.83 | 0.61 | 95 | 1018.8 |
| 20260903044604 | 18 | 190 | 1.6 | 4.8 | 0.53 | 1.75 | 0.53 | 94 | 1019.3 |
| 20260903044104 | 18 | 263 | 0.0 | 1.6 | 0.48 | 1.70 | 0.48 | 94 | 1019.8 |
| 20260903043604 | 18 | 263 | 1.6 | 4.8 | 0.41 | 1.63 | 0.41 | 94 | 1019.9 |
| 20260903043105 | 19 | 269 | 3.2 | 4.8 | 0.36 | 1.57 | 0.36 | 94 | 1020.2 |
| 20260903042105 | 19 | 4 | 9.7 | 24.1 | 0.20 | 1.42 | 0.20 | 93 | 1020.5 |
| 20260903041604 | 20 | 14 | 3.2 | 22.5 | 0.00 | 1.22 | 0.00 | 94 | 1020.6 |
| 20260903041104 | 20 | 250 | 3.2 | 4.8 | 0.00 | 1.22 | 0.00 | 94 | 1019.9 |
| 20260903040605 | 19 | 249 | 1.6 | 4.8 | 0.00 | 1.22 | 0.00 | 94 | 1019.4 |
| 20260903035603 | 19 | 249 | 1.6 | 4.8 | 0.00 | 1.22 | 1.22 | 93 | 1019.3 |
| 20260903035105 | 20 | 249 | 0.0 | 0.0 | 0.00 | 1.22 | 1.22 | 93 | 1019.4 |
| 20260903034604 | 19 | 249 | 0.0 | 0.0 | 0.00 | 1.22 | 1.22 | 93 | 1019.5 |
| 20260903034103 | 19 | 249 | 0.0 | 1.6 | 0.00 | 1.22 | 1.22 | 93 | 1019.6 |
| 20260903033604 | 19 | 249 | 0.0 | 3.2 | 0.00 | 1.22 | 1.22 | 93 | 1019.6 |
| 20260903033104 | 19 | 249 | 0.0 | 3.2 | 0.00 | 1.22 | 1.22 | 93 | 1019.5 |
| 20260903032603 | 19 | 249 | 0.0 | 4.8 | 0.00 | 1.22 | 1.22 | 93 | 1019.6 |
| 20260903032104 | 19 | 249 | 0.0 | 4.8 | 0.00 | 1.22 | 1.22 | 93 | 1019.8 |
| 20260903031603 | 19 | 247 | 4.8 | 11.3 | 0.00 | 1.22 | 1.22 | 93 | 1019.7 |
| 20260903030103 | 19 | 266 | 3.2 | 4.8 | 0.00 | 1.22 | 1.22 | 93 | 1019.1 |
| 20260903025604 | 19 | 170 | 0.0 | 0.0 | 0.00 | 1.22 | 1.22 | 93 | 1018.9 |
| 20260903025103 | 19 | 170 | 0.0 | 3.2 | 0.00 | 1.22 | 1.22 | 93 | 1018.9 |
| 20260903024604 | 19 | 170 | 1.6 | 4.8 | 0.00 | 1.22 | 1.22 | 93 | 1019.0 |
| 20260903024104 | 19 | 229 | 0.0 | 0.0 | 0.00 | 1.22 | 1.22 | 93 | 1019.6 |
| 20260903023104 | 19 | 167 | 0.0 | 0.0 | 0.00 | 1.22 | 1.22 | 93 | 1020.0 |
| 20260903022605 | 19 | 167 | 0.0 | 0.0 | 0.00 | 1.22 | 1.22 | 93 | 1020.0 |
| 20260903022104 | 19 | 167 | 0.0 | 0.0 | 0.00 | 1.22 | 1.22 | 93 | 1020.0 |
| 20260903021604 | 19 | 167 | 0.0 | 0.0 | 0.00 | 1.22 | 1.22 | 93 | 1020.3 |
| 20260903021104 | 19 | 167 | 0.0 | 0.0 | 0.00 | 1.22 | 1.22 | 93 | 1020.2 |
| 20260903020604 | 19 | 167 | 0.0 | 0.0 | 0.00 | 1.22 | 1.22 | 93 | 1020.1 |
| 20260903020105 | 18 | 167 | 0.0 | 0.0 | 0.00 | 1.22 | 1.22 | 93 | 1020.2 |
| 20260903015103 | 18 | 167 | 1.6 | 3.2 | 0.00 | 1.22 | 1.22 | 93 | 1020.3 |
| 20260903014604 | 18 | 167 | 0.0 | 4.8 | 0.00 | 1.22 | 1.22 | 92 | 1020.2 |
| 20260903014104 | 18 | 167 | 0.0 | 3.2 | 0.00 | 1.22 | 1.22 | 92 | 1020.3 |
| 20260903013604 | 18 | 173 | 0.0 | 4.8 | 0.00 | 1.22 | 1.22 | 93 | 1020.2 |
| 20260903013104 | 18 | 174 | 0.0 | 4.8 | 0.00 | 1.22 | 1.22 | 93 | 1020.2 |
| 20260903012604 | 18 | 174 | 1.6 | 11.3 | 0.00 | 1.22 | 1.22 | 93 | 1020.0 |
| 20260903012106 | 18 | 190 | 1.6 | 3.2 | 0.00 | 1.22 | 1.22 | 93 | 1020.0 |
| 20260903011605 | 18 | 190 | 0.0 | 1.6 | 0.00 | 1.22 | 1.22 | 93 | 1020.0 |
| 20260903011104 | 18 | 190 | 1.6 | 4.8 | 0.00 | 1.22 | 1.22 | 93 | 1020.3 |
| 20260903010104 | 18 | 212 | 1.6 | 4.8 | 0.00 | 1.22 | 1.22 | 93 | 1020.4 |
| 20260903005605 | 18 | 213 | 1.6 | 4.8 | 0.00 | 1.22 | 1.22 | 93 | 1020.5 |
| 20260903005105 | 18 | 213 | 1.6 | 4.8 | 0.00 | 1.22 | 1.22 | 93 | 1020.4 |
| 20260903004604 | 18 | 169 | 0.0 | 0.0 | 0.00 | 1.22 | 1.22 | 93 | 1020.3 |
| 20260903004104 | 18 | 169 | 0.0 | 3.2 | 0.00 | 1.22 | 1.22 | 93 | 1020.3 |
| 20260903003604 | 18 | 169 | 0.0 | 1.6 | 0.00 | 1.22 | 1.22 | 93 | 1020.3 |
| 20260903003104 | 18 | 169 | 0.0 | 3.2 | 0.00 | 1.22 | 1.22 | 94 | 1020.2 |
| 20260903002104 | 18 | 161 | 4.8 | 12.9 | 0.00 | 1.22 | 1.22 | 94 | 1020.3 |
| 20260903001604 | 18 | 205 | 0.0 | 1.6 | 0.00 | 1.22 | 1.22 | 94 | 1020.4 |
| 20260903001104 | 18 | 205 | 1.6 | 4.8 | 0.00 | 1.22 | 1.22 | 94 | 1020.5 |
| 20260903000604 | 18 | 197 | 0.0 | 3.2 | 0.00 | 1.22 | 1.22 | 94 | 1020.3 |
| 20260902235604 | 18 | 197 | 0.0 | 0.0 | 0.00 | 1.22 | 1.22 | 94 | 1020.3 |
| 20260902235104 | 18 | 197 | 1.6 | 4.8 | 0.00 | 1.22 | 1.22 | 94 | 1020.2 |
| 20260902234604 | 18 | 159 | 0.0 | 0.0 | 0.00 | 1.22 | 1.22 | 94 | 1020.1 |
| 20260902234103 | 18 | 159 | 0.0 | 0.0 | 0.00 | 1.22 | 1.22 | 94 | 1019.8 |
| 20260902233604 | 18 | 159 | 0.0 | 0.0 | 0.00 | 1.22 | 1.22 | 93 | 1019.7 |
| 20260902233105 | 18 | 159 | 0.0 | 4.8 | 0.00 | 1.22 | 1.22 | 93 | 1019.7 |
| 20260902232103 | 18 | 159 | 0.0 | 0.0 | 0.00 | 1.22 | 1.22 | 94 | 1020.1 |
| 20260902231604 | 18 | 159 | 0.0 | 8.0 | 0.00 | 1.22 | 1.22 | 93 | 1020.3 |
| 20260902231104 | 18 | 168 | 3.2 | 11.3 | 0.00 | 1.22 | 1.22 | 94 | 1020.0 |
| 20260902230604 | 18 | 157 | 4.8 | 11.3 | 0.00 | 1.22 | 1.22 | 94 | 1020.1 |
| 20260902230104 | 18 | 184 | 1.6 | 12.9 | 0.00 | 1.22 | 1.22 | 93 | 1020.2 |
| 20260902225604 | 18 | 155 | 4.8 | 16.1 | 0.00 | 1.22 | 1.22 | 94 | 1020.2 |
| 20260902225104 | 18 | 159 | 6.4 | 19.3 | 0.00 | 1.22 | 1.22 | 94 | 1020.1 |
| 20260902224103 | 18 | 159 | 1.6 | 4.8 | 0.00 | 1.22 | 1.22 | 94 | 1020.5 |
| 20260902223604 | 18 | 178 | 3.2 | 12.9 | 0.00 | 1.22 | 1.22 | 94 | 1020.7 |
| 20260902223104 | 18 | 160 | 4.8 | 12.9 | 0.00 | 1.22 | 1.22 | 94 | 1020.5 |
| 20260902222604 | 19 | 158 | 4.8 | 19.3 | 0.00 | 1.22 | 1.22 | 94 | 1020.6 |
| 20260902221604 | 19 | 139 | 3.2 | 4.8 | 0.00 | 1.22 | 1.22 | 94 | 1020.7 |
| 20260902221104 | 19 | 164 | 3.2 | 9.7 | 0.00 | 1.22 | 1.22 | 94 | 1021.0 |
| 20260902220604 | 19 | 138 | 1.6 | 14.5 | 0.00 | 1.22 | 1.22 | 94 | 1021.1 |
| 20260902215605 | 20 | 152 | 3.2 | 4.8 | 0.00 | 1.22 | 1.22 | 94 | 1021.2 |
| 20260902215105 | 20 | 200 | 0.0 | 0.0 | 0.00 | 1.22 | 1.22 | 94 | 1021.2 |
| 20260902214603 | 20 | 200 | 0.0 | 1.6 | 0.00 | 1.22 | 1.22 | 94 | 1021.2 |
| 20260902214105 | 20 | 200 | 0.0 | 1.6 | 0.00 | 1.22 | 1.22 | 94 | 1021.1 |
| 20260902213603 | 20 | 200 | 0.0 | 1.6 | 0.00 | 1.22 | 1.22 | 94 | 1020.9 |
| 20260902213104 | 20 | 200 | 0.0 | 0.0 | 0.00 | 1.22 | 1.22 | 94 | 1020.8 |
| 20260902212604 | 20 | 201 | 0.0 | 0.0 | 0.00 | 1.22 | 1.22 | 94 | 1020.6 |
| 20260902212105 | 20 | 201 | 0.0 | 3.2 | 0.00 | 1.22 | 1.22 | 94 | 1020.5 |
| 20260902211603 | 20 | 201 | 0.0 | 3.2 | 0.00 | 1.22 | 1.22 | 94 | 1020.4 |
| 20260902211104 | 20 | 203 | 0.0 | 4.8 | 0.00 | 1.22 | 1.22 | 94 | 1020.4 |
| 20260902210604 | 20 | 192 | 0.0 | 3.2 | 0.00 | 1.22 | 1.22 | 94 | 1020.5 |
| 20260902210104 | 20 | 162 | 0.0 | 3.2 | 0.00 | 1.22 | 1.22 | 94 | 1020.6 |
| 20260902205604 | 20 | 162 | 0.0 | 1.6 | 0.00 | 1.22 | 1.22 | 94 | 1020.5 |
| 20260902204103 | 20 | 162 | 0.0 | 3.2 | 0.00 | 1.22 | 1.22 | 94 | 1020.5 |
| 20260902203604 | 20 | 162 | 1.6 | 4.8 | 0.00 | 1.22 | 1.22 | 94 | 1020.7 |
| 20260902203104 | 20 | 162 | 3.2 | 4.8 | 0.00 | 1.22 | 1.22 | 94 | 1020.6 |
| 20260902202604 | 20 | 155 | 3.2 | 4.8 | 0.00 | 1.22 | 1.22 | 94 | 1020.6 |
| 20260902201604 | 19 | 148 | 1.6 | 4.8 | 0.00 | 1.22 | 1.22 | 95 | 1020.7 |
| 20260902201104 | 20 | 148 | 3.2 | 4.8 | 0.00 | 1.22 | 1.22 | 95 | 1020.7 |
| 20260902200604 | 20 | 155 | 0.0 | 0.0 | 0.00 | 1.22 | 1.22 | 95 | 1020.6 |
| 20260902200103 | 19 | 155 | 0.0 | 0.0 | 0.00 | 1.22 | 1.22 | 95 | 1020.6 |
| 20260902195603 | 19 | 155 | 0.0 | 0.0 | 0.03 | 1.22 | 1.22 | 95 | 1020.7 |